Flag for Germany Weather past 2 weeks in Geislingen an der Steige, Baden-Württemberg, Germany

Now
60 °F

Overcast.


Feels Like: 60 °F
Forecast: 39 / 51 °F
Wind: 5 mph from Northwest

Location: Stoetten

Current Time: Apr 27, 2015 at 2:40:54 PM

Latest Report: Apr 27, 2015 at 2:00 PM


Visibility: 47 mi

Pressure: 29.55 "Hg

Humidity: 69%

Dew point: 50 °F

Location of Geislingen an der SteigeLocation

Historic Weather in Geislingen an der Steige — Graph

°F

Geislingen an der Steige temperature yesterday

Maximum temperature yesterday: 62 °F (at 2:00 PM)
Minimum temperature yesterday: 47 °F (at 6:00 AM)
Average temperature yesterday: 55 °F

Past Weeks' High & Low Weather Summary

 TemperatureHumidityPressure
High70 °F (Apr 15, 5:00 PM)98% (Apr 25, 11:00 PM)30.46 "Hg (Apr 25, 11:00 PM)
Low32 °F (Apr 19, 5:00 AM)24% (Apr 15, 5:00 PM)29.57 "Hg (Apr 27, 1:00 PM)
Average51 °F59%30.11 "Hg
* Reported Apr 12 1:00 PM — Apr 27 1:00 PM, Geislingen an der Steige, Weather by CustomWeather, © 2015

Note: Actual official high and low records may vary slightly from our data, if they occured in-between our weather recording intervals... More about our weather records

Advertising

Geislingen an der Steige weather history for previous 24 hours

 ConditionsComfort  
Time TempWeatherWind HumidityBarometerVisibility
1:00 PM
Mon, Apr 27
60 °FOvercast.5 mph72%29.57 "Hg47 mi
12:00 PM57 °FOvercast.7 mph73%29.58 "Hg47 mi
11:00 AM57 °FOvercast.7 mph78%29.58 "Hg43 mi
10:00 AM57 °FOvercast.7 mph80%29.58 "Hg37 mi
9:00 AM55 °FPartly sunny.5 mph83%29.58 "Hg34 mi
8:00 AM53 °FPartly sunny.5 mph86%29.60 "Hg34 mi
7:00 AM50 °FPartly sunny.5 mph90%29.61 "Hg31 mi
6:00 AM50 °FPassing clouds.5 mph88%29.60 "Hg31 mi
5:00 AM49 °FClear.3 mph93%29.63 "Hg16 mi
4:00 AM52 °FPassing clouds.3 mph88%29.61 "Hg19 mi
3:00 AM53 °FOvercast.3 mph85%29.61 "Hg25 mi
2:00 AM52 °FOvercast.5 mph91%29.64 "Hg22 mi
1:00 AM52 °FRain. Fog.3 mph94%29.68 "Hg2 mi
12:00 AM57 °FOvercast.3 mph67%29.65 "Hg43 mi
11:00 PM
Sun, Apr 26
57 °FOvercast.3 mph64%29.66 "Hg43 mi
10:00 PM57 °FOvercast.3 mph65%29.67 "Hg43 mi
9:00 PM58 °FPassing clouds.3 mph66%29.66 "Hg43 mi
8:00 PM59 °FScattered clouds.3 mph64%29.66 "Hg43 mi
7:00 PM62 °FPartly sunny.2 mph56%29.65 "Hg34 mi
6:00 PM61 °FOvercast.2 mph59%29.68 "Hg43 mi
5:00 PM61 °FOvercast.3 mph60%29.69 "Hg47 mi
4:00 PM58 °FThunderstorms. Partly sunny.3 mph71%29.73 "Hg40 mi
3:00 PM61 °FOvercast.2 mph55%29.73 "Hg47 mi
2:00 PM62 °FPartly sunny.3 mph50%29.75 "Hg47 mi
Weather by CustomWeather, © 2015

See weather overviewHow to use our weather pages